Torna al catalogo

STARLINK-2336

AttivoComunicazioniVLEO
NORAD 47879·PAYLOAD·🇺🇸 United States

Lanciato Mar 14, 2021 da Cape Canaveral Space Force Station

Loading…

Prossimi Passaggi (prossime 24 ore)

TLE

AggiornatoSource: CelesTrak SupGP

Epoca: Sep 15, 2026, 01:08 UTC

1 47879C 21021V   26258.04770833  .03259400  00000+0  12076-2 0  2584
2 47879  53.1361  72.7526 0011918 291.8971  89.7665 16.23556693    10

Traccia STARLINK-2336 in tempo reale con AllMySat

Download on the App Store